Racecast

DeWitt Invitational

Dewitt HS · 5000m · Boys · Compiled · MI

164 runners from 2 divisions

These divisions were run separately. This is how their times compare, not how they finished — the places and scores below were never contested.

View full meet →

Team scores

Place Team Points 12345 67
1 Eaton Rapids (MI) 54 3 7 10 13 21 23 45
2 Jackson Lumen Christi (MI) 63 4 6 9 19 25 26 37
3 DeWitt (MI) 103 5 14 24 28 32 38 42
4 Haslett (MI) 106 2 11 18 31 44 48 53
5 Detroit Catholic Central (MI) 118 12 16 22 33 35 40 41
6 Lansing Catholic (MI) 125 1 15 29 34 46 50 55
7 Lansing Waverly (MI) 173 8 27 39 47 52 58 61
8 Addison (MI) 203 17 30 49 51 56 59 60
9 Ann Arbor Greenhills (MI) 210 20 36 43 54 57 63 67
10 Lansing Everett (MI) 325 62 64 65 66 68

Results

Place Athlete Grade School Time Rating Points Actual race
1 Keenan Rebera 11 Lansing Catholic (MI) 1 15:25.0 134.3 1 1
2 Alex McCormick 12 Haslett (MI) 1 15:53.1 130.4 2 2
3 Jake Spencer 11 Eaton Rapids (MI) 1 16:42.2 124.0 3 3
4 Karl Berkemeier 12 Jackson Lumen Christi (MI) 1 17:04.2 121.3 4 1
5 Mitch Kolito 11 DeWitt (MI) 1 17:06.2 121.1 5 4
6 Patrick Soltis 12 Jackson Lumen Christi (MI) 2 17:07.2 121.0 6 2
7 Alan Griffith 12 Eaton Rapids (MI) 2 17:14.4 120.1 7 5
8 Gregory Johnson 12 Lansing Waverly (MI) 1 17:18.8 119.6 8 6
9 Ryan Gibson 11 Jackson Lumen Christi (MI) 3 17:21.4 119.3 9 3
10 Brody Benward 10 Eaton Rapids (MI) 3 17:27.6 118.6 10 7
11 Luke Corder 12 Haslett (MI) 2 17:34.1 117.9 11 8
12 Matthew Fosdick 10 Detroit Catholic Central (MI) 1 17:44.1 116.8 12 9
13 Collin Spagnuolo 12 Eaton Rapids (MI) 4 17:46.3 116.5 13 10
14 Balion Powell 10 DeWitt (MI) 2 17:46.7 116.5 14 11
15 Max Hayden 12 Lansing Catholic (MI) 2 17:56.6 115.4 15 12
16 Brendan Canavan 9 Detroit Catholic Central (MI) 2 17:57.4 115.3 16 13
17 Mason Groenhout 12 Addison (MI) 1 18:06.3 114.4 17 4
18 Martti Weaver 11 Haslett (MI) 3 18:07.5 114.3 18 14
19 Nadji Butris 10 Jackson Lumen Christi (MI) 4 18:12.4 113.8 19 5
20 Alexander Reeves 11 Ann Arbor Greenhills (MI) 1 18:14.5 113.5 20 6
21 Taylor Rouse 9 Eaton Rapids (MI) 5 18:15.3 113.4 21 15
22 Jay Siberski 12 Detroit Catholic Central (MI) 3 18:17.5 113.2 22 16
23 Shea McKenzie 12 Eaton Rapids (MI) 6 18:19.7 113.0 23 17
24 Aaron Scheffler 12 DeWitt (MI) 3 18:21.5 112.8 24 18
25 Canyon Raburn 12 Jackson Lumen Christi (MI) 5 18:26.5 112.3 25 7
26 Alex Hoop 11 Jackson Lumen Christi (MI) 6 18:33.3 111.6 26 8
27 Sean Fisher 10 Lansing Waverly (MI) 2 18:35.4 111.4 27 19
28 Austin Messman 12 DeWitt (MI) 4 18:36.1 111.3 28 20
29 Gavin Jager 10 Lansing Catholic (MI) 3 18:36.6 111.3 29 21
30 Blaze Valdez 11 Addison (MI) 2 18:37.3 111.2 30 9
31 Dakota Laurenty 10 Haslett (MI) 4 18:37.8 111.2 31 22
32 Kyle Evans 10 DeWitt (MI) 5 18:48.5 110.1 32 23
33 Zach Bowling 12 Detroit Catholic Central (MI) 4 18:50.7 109.9 33 24
34 Teddy Jurkovic 11 Lansing Catholic (MI) 4 18:52.2 109.8 34 25
35 Andrew Clark 9 Detroit Catholic Central (MI) 5 18:54.3 109.6 35 26
36 Naveen Fujii 10 Ann Arbor Greenhills (MI) 2 18:59.7 109.0 36 10
37 Kristopher Cavender 11 Jackson Lumen Christi (MI) 7 19:00.4 109.0 37 11
38 Nathan Tempelman 9 DeWitt (MI) 6 19:04.6 108.6 38 27
39 McKee Hibbs 11 Lansing Waverly (MI) 3 19:08.2 108.2 39 28
40 Matthew Pochowicz 12 Detroit Catholic Central (MI) 6 19:10.3 108.0 40 29
41 Ben Worth 11 Detroit Catholic Central (MI) 7 19:11.4 107.9 41 30
42 Joshua Ryan 10 DeWitt (MI) 7 19:12.3 107.8 42 31
43 Chuckie Billingsley 12 DeWitt (MI) 8 19:18.7 107.2 32
44 Dominic Johnson 11 Ann Arbor Greenhills (MI) 3 19:20.9 107.0 43 12
45 Nick Garnett 11 Haslett (MI) 5 19:21.1 107.0 44 33
46 Kyle Giusti 10 Detroit Catholic Central (MI) 8 19:22.1 106.9 34
47 Sean Hyaduck 10 Detroit Catholic Central (MI) 9 19:22.6 106.9 35
48 Blake Roodvoets 9 Eaton Rapids (MI) 7 19:24.4 106.7 45 36
49 Ryan Whinnery 9 Detroit Catholic Central (MI) 10 19:24.7 106.7 37
50 Chris Riley 9 Lansing Catholic (MI) 5 19:26.4 106.5 46 38
51 Matthew Higgins 10 Detroit Catholic Central (MI) 11 19:26.6 106.5 39
52 Spencer Doyle 11 Detroit Catholic Central (MI) 12 19:27.8 106.4 40
53 Alex Laforest 10 Detroit Catholic Central (MI) 13 19:28.0 106.4 41
54 Isaac Evans 9 DeWitt (MI) 9 19:28.9 106.3 42
55 Matt Thomas 11 Jackson Lumen Christi (MI) 8 19:32.7 106.0 13
56 Tim Letarte 12 Eaton Rapids (MI) 8 19:33.1 105.9 43
57 Ben Phillips 11 Detroit Catholic Central (MI) 14 19:36.3 105.6 44
58 Josh Anderson 9 Lansing Waverly (MI) 4 19:40.6 105.2 47 45
59 Luke Fox 11 Detroit Catholic Central (MI) 15 19:41.3 105.2 46
60 Fetsum Habtemariam 10 Haslett (MI) 6 19:43.5 105.0 48 47
61 Sebastian Miner 10 Detroit Catholic Central (MI) 16 19:44.3 104.9 48
62 Ryan Freemire 9 Eaton Rapids (MI) 9 19:44.8 104.9 49
63 Dakota Perry 11 Addison (MI) 3 19:47.3 104.7 49 14
64 Nathan Lentz 10 DeWitt (MI) 10 19:47.9 104.6 50
65 Will Meaton 9 Lansing Catholic (MI) 6 19:48.6 104.5 50 51
66 Seth Biggs 11 Addison (MI) 4 19:49.8 104.4 51 15
67 Nick Merucci 12 Detroit Catholic Central (MI) 17 19:50.6 104.4 52
68 Jordan Potter 11 Lansing Waverly (MI) 5 19:51.2 104.3 52 53
69 Anthony Sciarini 11 Haslett (MI) 7 19:52.1 104.2 53 54
70 Nick Chames 12 Jackson Lumen Christi (MI) 9 19:56.0 103.9 16
71 Trevor Norkey 12 Jackson Lumen Christi (MI) 10 20:05.4 103.1 17
72 Jacob Lentz 12 DeWitt (MI) 11 20:06.3 103.0 55
73 Austin Belanger-Iott 12 Eaton Rapids (MI) 10 20:09.5 102.7 56
74 Andrew Gitlin 12 Ann Arbor Greenhills (MI) 4 20:09.6 102.7 54 18
75 Dakota Dietz 9 DeWitt (MI) 12 20:10.2 102.7 57
76 Shane Saxton 9 Detroit Catholic Central (MI) 18 20:10.9 102.6 58
77 Kevin Isaac 12 Lansing Catholic (MI) 7 20:12.1 102.5 55 59
78 Henry Lee 12 DeWitt (MI) 13 20:13.2 102.4 60
79 James French 11 DeWitt (MI) 14 20:16.4 102.2 61
80 Alan Reed 11 Addison (MI) 5 20:18.0 102.0 56 19
81 Nick Cobb 11 Detroit Catholic Central (MI) 19 20:19.6 101.9 62
82 Matthew Hagaman 9 Eaton Rapids (MI) 11 20:20.4 101.8 63
83 Santiago Diaz 9 Lansing Catholic (MI) 8 20:21.1 101.8 64
84 Ian Harris 10 Ann Arbor Greenhills (MI) 5 20:24.1 101.5 57 20
85 Andrew Wilson 10 Detroit Catholic Central (MI) 20 20:28.9 101.1 65
86 Jonah Kazmierski 11 Lansing Catholic (MI) 9 20:31.9 100.9 66
87 Michael Morgan 11 Eaton Rapids (MI) 12 20:33.5 100.7 67
88 Jake Roodvoets 11 Eaton Rapids (MI) 13 20:33.9 100.7 68
89 Andrew Wright 12 Eaton Rapids (MI) 14 20:38.4 100.3 69
90 Alex Iaquinto 10 Detroit Catholic Central (MI) 21 20:39.9 100.2 70
91 Nick Seffernick 11 Jackson Lumen Christi (MI) 11 20:43.4 99.9 21
92 Dan Vigor 12 Haslett (MI) 8 20:43.7 99.9 71
93 John Slough 10 Jackson Lumen Christi (MI) 12 20:47.0 99.7 22
94 Devin Abb 9 Detroit Catholic Central (MI) 22 20:47.5 99.6 72
95 Alex Nicholas 9 Eaton Rapids (MI) 15 20:55.0 99.0 73
96 Ryan Armbrustmacher 9 DeWitt (MI) 15 20:55.8 98.9 74
97 Karmasie Humes 10 Lansing Waverly (MI) 6 21:07.4 98.0 58 75
98 Sean Kelly 11 Detroit Catholic Central (MI) 23 21:07.7 98.0 76
99 Marcus Richardson 10 Addison (MI) 6 21:10.7 97.8 59 23
100 Dillon Platte 9 Eaton Rapids (MI) 16 21:10.9 97.8 77
101 Charles Sheppard 11 Eaton Rapids (MI) 17 21:14.2 97.5 78
102 Andrew Paul 11 Eaton Rapids (MI) 18 21:15.7 97.4 79
103 Kyle Beyer 12 Addison (MI) 7 21:21.6 97.0 60 24
104 Isaac Coolidge 9 Eaton Rapids (MI) 19 21:24.7 96.7 80
105 Jack Evans 11 Detroit Catholic Central (MI) 24 21:25.1 96.7 81
106 Taylor Coe 11 Lansing Waverly (MI) 7 21:27.1 96.5 61 82
107 Bryce Schafer 9 DeWitt (MI) 16 21:27.8 96.5 83
108 Spencer Wamsley 9 DeWitt (MI) 17 21:29.8 96.3 84
109 Ty Buckley 9 Detroit Catholic Central (MI) 25 21:30.7 96.3 85
110 Bryce Fisher 9 DeWitt (MI) 18 21:31.1 96.2 86
111 Zac Denison 11 Eaton Rapids (MI) 20 21:37.1 95.8 87
112 Daniel Nowinski 12 Jackson Lumen Christi (MI) 13 21:43.6 95.3 25
113 Brett Robbins 12 DeWitt (MI) 19 21:44.7 95.2 88
114 Scott Fitzgerald 10 Jackson Lumen Christi (MI) 14 21:45.6 95.2 26
115 Parker Young 10 Eaton Rapids (MI) 21 21:47.6 95.0 89
116 Christian Garza 10 Lansing Everett (MI) 1 21:49.7 94.9 62 90
117 Evan Hamp 9 DeWitt (MI) 20 21:52.6 94.7 91
118 Patrick McAdams 12 Detroit Catholic Central (MI) 26 21:54.7 94.5 92
119 Perry Fiero 10 Haslett (MI) 9 21:55.1 94.5 93
120 Daniel Wagner 10 Lansing Waverly (MI) 8 21:55.9 94.4 94
121 Zach Norris 12 DeWitt (MI) 21 21:56.3 94.4 95
122 Brennan Schilling 11 Detroit Catholic Central (MI) 27 22:03.8 93.9 96
123 Matt Olson 12 Eaton Rapids (MI) 22 22:11.1 93.3 97
124 Quinn Sheppard 9 Eaton Rapids (MI) 23 22:11.4 93.3 98
125 Brenden Hein 10 Detroit Catholic Central (MI) 28 22:16.4 93.0 99
126 Patrick Snabes 9 Ann Arbor Greenhills (MI) 6 22:25.0 92.4 63 27
127 Shaun Rosenberg 12 Lansing Everett (MI) 2 22:29.6 92.1 64 100
128 Jeffery McLaughlin 12 DeWitt (MI) 22 22:32.1 91.9 101
129 Austin Salisbury 11 Haslett (MI) 10 22:35.3 91.7 102
130 Matthew Mills 10 Detroit Catholic Central (MI) 29 22:46.2 90.9 103
131 David Dehnke 9 Lansing Catholic (MI) 10 22:46.9 90.9 104
132 Kody Lankton 10 Eaton Rapids (MI) 24 22:52.1 90.6 105
133 Matt Munie 11 Jackson Lumen Christi (MI) 15 22:55.9 90.3 28
134 Matt Roark 12 Addison (MI) 8 23:02.1 89.9 29
135 Devin Buckhout 10 Addison (MI) 9 23:08.7 89.5 30
136 Lukas Nattland 10 Addison (MI) 10 23:09.3 89.4 31
137 Mitchell Mcsweeney 10 Detroit Catholic Central (MI) 30 23:28.2 88.2 106
138 Brenden Hilliard 10 Haslett (MI) 11 23:36.5 87.7 107
139 Justin Smith 11 DeWitt (MI) 23 23:37.3 87.7 108
140 George Zhu 9 Jackson Lumen Christi (MI) 16 23:40.8 87.5 32
141 Josh Owen 9 Eaton Rapids (MI) 25 23:43.2 87.3 109
142 Sam Crandall 10 Eaton Rapids (MI) 26 23:52.1 86.8 110
143 Brian Delamarter 11 Eaton Rapids (MI) 27 23:57.2 86.5 111
144 Jordan Moffitt 11 DeWitt (MI) 24 24:07.7 85.8 112
145 Patrick Ray 12 Detroit Catholic Central (MI) 31 24:10.5 85.7 113
146 Keith Melong 10 Detroit Catholic Central (MI) 32 24:12.8 85.5 114
147 Jason Lucey 9 Addison (MI) 11 24:16.9 85.3 33
148 Collin Mayfield 10 Addison (MI) 12 24:18.9 85.2 34
149 Nick Foor 12 Addison (MI) 13 24:20.9 35
150 Brendan Edie 9 DeWitt (MI) 25 24:43.7 83.8 115
151 Connor Fay 12 Lansing Everett (MI) 3 24:47.2 83.6 65 116
152 Michael Eva 9 DeWitt (MI) 26 24:51.8 83.3 117
153 Chris Yeager 12 Eaton Rapids (MI) 28 24:52.7 83.2 118
154 Raymond Ware 11 Lansing Everett (MI) 4 25:10.0 82.3 66 119
155 Zaakir Hamzavi 9 Ann Arbor Greenhills (MI) 7 25:14.6 82.0 67 36
156 Jake Borucki 11 Haslett (MI) 12 25:16.4 81.9 120
157 Jack Urquhart 9 Ann Arbor Greenhills (MI) 8 25:26.3 81.4 37
158 Tanwei Chen 11 Ann Arbor Greenhills (MI) 9 25:30.0 81.2 38
159 Alex Cobb 9 Detroit Catholic Central (MI) 33 26:38.3 77.7 121
160 Ken Cuthbertson 10 Addison (MI) 14 27:30.6 75.3 39
161 Colin Smith 9 Lansing Catholic (MI) 11 27:48.5 74.5 122
162 Tyler Evans 10 Haslett (MI) 13 28:35.5 72.4 123
163 Owen Jowett 9 Lansing Catholic (MI) 12 29:53.0 69.3 124
164 Corey Byron 12 Lansing Everett (MI) 5 39:31.7 52.4 68 125